Farmington, MO

4:40 AM CDT on October 15, 2019 (GMT -0500)
Farmington Regional

Weather History for KFAM - July, 2019

Change the Weather History Date:

Friday, July 12, 2019

  Actual Average Record
Temperature  
Mean Temperature 76 °F -  
Max Temperature 87 °F 84 °F 99 °F (2017)
Min Temperature 66 °F 64 °F 53 °F (1999)
Cooling Degree Days 12    
Growing Degree Days 26 (Base 50)    
Moisture  
Dew Point 68 °F    
Average Humidity 78    
Maximum Humidity 97    
Minimum Humidity 55    
Precipitation  
Precipitation 0.00 in - - ()
Sea Level Pressure  
Sea Level Pressure 29.99 in    
Wind  
Wind Speed 3 mph (ENE)    
Max Wind Speed 12 mph    
Max Gust Speed -    
Visibility 10 miles    
Events      
Averages and records for this station are not official NWS values.
T = Trace of Precipitation, MM = Missing Value Source: NWS Daily Summary

Daily Weather History Graph

Daily Weather History Graph

Search for Another Location

Airport or City:

Astronomy

Jul. 12, 2019 Rise Set
Actual Time 5:49 AM CDT 8:24 PM CDT
Civil Twilight 5:19 AM CDT 8:55 PM CDT
Nautical Twilight 4:40 AM CDT 9:33 PM CDT
Astronomical Twilight 3:58 AM CDT 10:15 PM CDT
Moon 4:45 PM CDT (7/12) 2:31 AM CDT (7/12)
Length of Visible Light 15h 36m
Length of Day
14h 35m
Waxing Gibbous, 83% of the Moon is Illuminated
Jul 12
Waxing Gibbous
Jul 16
Full
Jul 24
Last Quarter
Jul 31
New
Aug 7
First Quarter

Hourly Weather History & Observations

Time (CDT) Temp. Heat Index Dew Point Humidity Pressure Visibility Wind Dir Wind Speed Gust Speed Precip Events Conditions
12:56 AM 69.1 °F - 68.0 °F 96% 29.97 in 10.0 mi Calm Calm - N/A   Clear
1:56 AM 68.0 °F - 66.9 °F 96% 29.98 in 10.0 mi Calm Calm - N/A   Clear
2:56 AM 66.9 °F - 66.0 °F 97% 29.97 in 10.0 mi Calm Calm - N/A   Partly Cloudy
3:56 AM 68.0 °F - 66.9 °F 96% 29.96 in 10.0 mi Calm Calm - N/A   Clear
4:56 AM 66.9 °F - 66.0 °F 97% 29.96 in 9.0 mi Calm Calm - N/A   Clear
5:56 AM 66.9 °F - 66.0 °F 97% 29.98 in 9.0 mi SW 3.5 mph - N/A   Clear
6:56 AM 69.1 °F - 66.9 °F 93% 30.00 in 10.0 mi Calm Calm - N/A   Clear
7:56 AM 73.0 °F - 69.1 °F 87% 30.00 in 10.0 mi Variable 3.5 mph - N/A   Clear
8:56 AM 75.9 °F - 70.0 °F 82% 30.02 in 10.0 mi Variable 3.5 mph - N/A   Partly Cloudy
9:56 AM 79.0 °F - 71.1 °F 77% 30.01 in 10.0 mi NNE 3.5 mph - N/A   Scattered Clouds
10:56 AM 82.0 °F 86.3 °F 71.1 °F 69% 30.01 in 10.0 mi East 4.6 mph - N/A   Scattered Clouds
11:56 AM 82.9 °F 87.0 °F 70.0 °F 65% 30.01 in 10.0 mi East 10.4 mph - N/A   Mostly Cloudy
12:56 PM 84.0 °F 88.4 °F 70.0 °F 63% 30.00 in 10.0 mi Variable 6.9 mph - N/A   Partly Cloudy
1:56 PM 87.1 °F 92.0 °F 70.0 °F 57% 30.00 in 10.0 mi ESE 11.5 mph - N/A   Scattered Clouds
2:56 PM 87.1 °F 91.3 °F 69.1 °F 55% 29.99 in 10.0 mi East 9.2 mph - N/A   Clear
3:56 PM 87.1 °F 91.3 °F 69.1 °F 55% 29.98 in 10.0 mi East 6.9 mph - N/A   Scattered Clouds
4:56 PM 84.0 °F 87.8 °F 69.1 °F 61% 29.97 in 10.0 mi North 5.8 mph - N/A   Clear
5:56 PM 86.0 °F 89.4 °F 68.0 °F 55% 29.97 in 10.0 mi East 6.9 mph - N/A   Partly Cloudy
6:56 PM 84.0 °F 86.5 °F 66.9 °F 56% 29.98 in 10.0 mi ENE 6.9 mph - N/A   Clear
7:56 PM 81.0 °F 83.8 °F 68.0 °F 65% 29.98 in 10.0 mi East 3.5 mph - N/A   Clear
8:56 PM 75.0 °F - 66.9 °F 76% 29.98 in 10.0 mi NNE 3.5 mph - N/A   Clear
9:56 PM 73.0 °F - 69.1 °F 87% 29.99 in 6.0 mi Calm Calm - N/A   Clear
10:56 PM 70.0 °F - 68.0 °F 93% 29.99 in 10.0 mi Calm Calm - N/A   Clear
11:56 PM 69.1 °F - 66.9 °F 93% 30.00 in 10.0 mi Calm Calm - N/A   Clear